{"data":{"norad_id":57903,"epoch":"2026-09-20T09:08:31.916544Z","epoch_age_seconds":144681,"freshness":"FRESH","line1":"1 57903U 23146N   26263.38092496 -.00000106  00000+0  56562-5 0  9996","line2":"2 57903  43.0019 294.5226 0000780 272.9260  87.1502 15.27574407165777","mean_motion":15.27574407,"eccentricity":7.8e-5,"inclination_deg":43.0019,"raan_deg":294.5226,"arg_perigee_deg":272.926,"mean_anomaly_deg":87.1502,"bstar":5.6562e-6,"rev_number":16577,"period_min":94.267093858165,"perigee_km":482.53066972303,"apogee_km":483.60101736662,"semimajor_km":6861.2028435448,"source":"CELESTRAK","updated_at":"2026-09-21T09:00:33.722888Z"}}